EN

Hourly Weather Abalos

Today, 30 November, Monday

Time Temperature Precipitation Wind Pressure Humidity
00:00 +8°C° 0 mm 1 mps 717 mmHg 77%
01:00 +8°C° 0 mm 1 mps 717 mmHg 76%
02:00 +8°C° 0 mm 1 mps 717 mmHg 76%
03:00 +8°C° 0 mm 1 mps 717 mmHg 76%
04:00 +8°C° 0 mm 1 mps 717 mmHg 76%
05:00 +8°C° 0 mm 1 mps 718 mmHg 76%
06:00 +7°C° 0 mm 1 mps 718 mmHg 76%
07:00 +8°C° 0 mm 1 mps 718 mmHg 73%
08:00 +9°C° 0 mm 1 mps 719 mmHg 70%
09:00 +10°C° 0 mm 1 mps 719 mmHg 67%
10:00 +11°C° 0 mm 1 mps 719 mmHg 63%
11:00 +13°C° 0 mm 1 mps 719 mmHg 59%
12:00 +14°C° 0 mm 1 mps 720 mmHg 55%
13:00 +14°C° 0 mm 1 mps 719 mmHg 56%
14:00 +14°C° 0 mm 1 mps 719 mmHg 57%
15:00 +15°C° 0 mm 1 mps 719 mmHg 58%
16:00 +13°C° 0 mm 1 mps 719 mmHg 67%
17:00 +11°C° 0 mm 1 mps 719 mmHg 75%
18:00 +9°C° 0 mm 1 mps 719 mmHg 83%
19:00 +9°C° 0 mm 1 mps 720 mmHg 86%
20:00 +8°C° 0 mm 1 mps 720 mmHg 88%
21:00 +7°C° 0 mm 1 mps 720 mmHg 91%
22:00 +7°C° 0 mm 1 mps 720 mmHg 90%
23:00 +7°C° 0 mm 1 mps 720 mmHg 89%

Tomorrow, 1 December, Tuesday

Time Temperature Precipitation Wind Pressure Humidity
00:00 +6°C° 0 mm 1 mps 720 mmHg 88%
01:00 +6°C° 0 mm 1 mps 720 mmHg 86%
02:00 +5°C° 0 mm 1 mps 720 mmHg 84%
03:00 +5°C° 0 mm 1 mps 720 mmHg 82%
04:00 +5°C° 0 mm 1 mps 720 mmHg 79%
05:00 +5°C° 0 mm 1 mps 720 mmHg 75%
06:00 +5°C° 0 mm 1 mps 719 mmHg 72%
07:00 +6°C° 0 mm 1 mps 720 mmHg 67%
08:00 +7°C° 0 mm 1 mps 720 mmHg 61%
09:00 +8°C° 0 mm 1 mps 720 mmHg 55%
10:00 +9°C° 0 mm 1 mps 720 mmHg 52%
11:00 +9°C° 0 mm 2 mps 720 mmHg 48%
12:00 +12°C° 0 mm 2 mps 719 mmHg 45%
13:00 +12°C° 0 mm 2 mps 719 mmHg 47%
14:00 +12°C° 0 mm 2 mps 719 mmHg 49%
15:00 +12°C° 0 mm 2 mps 718 mmHg 51%
16:00 +10°C° 0 mm 2 mps 718 mmHg 57%
17:00 +8°C° 0 mm 2 mps 718 mmHg 63%
18:00 +8°C° 0 mm 1 mps 717 mmHg 69%
19:00 +7°C° 0 mm 2 mps 717 mmHg 69%
20:00 +7°C° 0 mm 2 mps 717 mmHg 69%
21:00 +7°C° 0 mm 2 mps 717 mmHg 69%
22:00 +7°C° 0.2 mm 2 mps 717 mmHg 72%
23:00 +7°C° 0.2 mm 3 mps 717 mmHg 75%

Day after tomorrow, 2 December, Wednesday

Time Temperature Precipitation Wind Pressure Humidity
00:00 +8°C° 0.2 mm 3 mps 716 mmHg 77%
01:00 +7°C° 0.2 mm 3 mps 716 mmHg 81%
02:00 +7°C° 0.2 mm 3 mps 716 mmHg 85%
03:00 +7°C° 0.2 mm 3 mps 716 mmHg 89%
04:00 +5°C° 0.1 mm 3 mps 715 mmHg 90%
05:00 +4°C° 0.1 mm 3 mps 715 mmHg 90%
06:00 +5°C° 0.1 mm 2 mps 715 mmHg 91%
07:00 +4°C° 0 mm 3 mps 715 mmHg 86%
08:00 +4°C° 0 mm 3 mps 716 mmHg 82%
09:00 +4°C° 0 mm 3 mps 716 mmHg 77%
10:00 +4°C° 0.1 mm 3 mps 716 mmHg 76%
11:00 +5°C° 0.1 mm 3 mps 716 mmHg 76%
12:00 +5°C° 0.1 mm 4 mps 716 mmHg 75%
13:00 +5°C° 0.1 mm 4 mps 716 mmHg 74%
14:00 +5°C° 0.1 mm 4 mps 716 mmHg 74%
15:00 +5°C° 0.1 mm 4 mps 715 mmHg 73%
16:00 +5°C° 0.1 mm 4 mps 715 mmHg 77%
17:00 +4°C° 0.1 mm 3 mps 716 mmHg 82%
18:00 +4°C° 0.1 mm 2 mps 716 mmHg 86%
19:00 +4°C° 0 mm 2 mps 716 mmHg 86%
20:00 +4°C° 0 mm 2 mps 716 mmHg 85%
21:00 +4°C° 0 mm 2 mps 716 mmHg 85%
22:00 +4°C° 0 mm 2 mps 716 mmHg 84%
23:00 +4°C° 0 mm 2 mps 716 mmHg 84%

3 December, Thursday

Time Temperature Precipitation Wind Pressure Humidity
00:00 +4°C° 0 mm 2 mps 715 mmHg 84%
01:00 +4°C° 0 mm 2 mps 715 mmHg 85%
02:00 +3°C° 0 mm 2 mps 715 mmHg 86%
03:00 +3°C° 0 mm 2 mps 714 mmHg 87%
04:00 +3°C° 0 mm 2 mps 713 mmHg 87%
05:00 +2°C° 0 mm 2 mps 713 mmHg 88%
06:00 +2°C° 0 mm 2 mps 712 mmHg 88%
07:00 +2°C° 0 mm 2 mps 712 mmHg 83%
08:00 +3°C° 0 mm 2 mps 711 mmHg 77%
09:00 +5°C° 0 mm 1 mps 711 mmHg 72%
10:00 +6°C° 0 mm 2 mps 710 mmHg 67%
11:00 +7°C° 0 mm 2 mps 710 mmHg 62%
12:00 +9°C° 0 mm 3 mps 709 mmHg 57%
13:00 +9°C° 0 mm 3 mps 708 mmHg 56%
14:00 +9°C° 0 mm 3 mps 707 mmHg 55%
15:00 +8°C° 0 mm 4 mps 706 mmHg 55%
16:00 +8°C° 0 mm 3 mps 706 mmHg 60%
17:00 +5°C° 0 mm 3 mps 705 mmHg 65%
18:00 +5°C° 0 mm 2 mps 705 mmHg 71%
19:00 +4°C° 0 mm 2 mps 704 mmHg 71%
20:00 +3°C° 0 mm 3 mps 704 mmHg 71%
21:00 +3°C° 0 mm 3 mps 703 mmHg 72%
22:00 +3°C° 0 mm 3 mps 703 mmHg 74%
23:00 +3°C° 0 mm 4 mps 702 mmHg 76%

4 December, Friday

Time Temperature Precipitation Wind Pressure Humidity
00:00 +3°C° 0 mm 4 mps 701 mmHg 78%
01:00 +4°C° 0 mm 4 mps 701 mmHg 79%
02:00 +3°C° 0 mm 5 mps 701 mmHg 79%
03:00 +3°C° 0 mm 5 mps 700 mmHg 79%
04:00 +4°C° 0.4 mm 4 mps 700 mmHg 81%
05:00 +4°C° 0.4 mm 4 mps 700 mmHg 83%
06:00 +3°C° 0.4 mm 3 mps 700 mmHg 85%
07:00 +3°C° 0.3 mm 3 mps 700 mmHg 82%
08:00 +3°C° 0.3 mm 3 mps 700 mmHg 79%
09:00 +3°C° 0.3 mm 4 mps 700 mmHg 76%
10:00 +3°C° 0.3 mm 5 mps 700 mmHg 70%
11:00 +4°C° 0.3 mm 6 mps 700 mmHg 63%
12:00 +5°C° 0.3 mm 7 mps 700 mmHg 57%
13:00 +4°C° 0.1 mm 7 mps 700 mmHg 55%
14:00 +4°C° 0.1 mm 7 mps 699 mmHg 53%
15:00 +4°C° 0.1 mm 6 mps 699 mmHg 52%
16:00 +3°C° 0 mm 6 mps 699 mmHg 56%
17:00 +2°C° 0 mm 5 mps 699 mmHg 61%
18:00 +1°C° 0 mm 4 mps 699 mmHg 66%
19:00 0°C° 0 mm 4 mps 700 mmHg 68%
20:00 0°C° 0 mm 4 mps 700 mmHg 71%
21:00 0°C° 0 mm 4 mps 700 mmHg 73%
22:00 0°C° 0 mm 4 mps 700 mmHg 75%
23:00 0°C° 0 mm 4 mps 701 mmHg 77%

5 December, Saturday

Time Temperature Precipitation Wind Pressure Humidity
00:00 0°C° 0 mm 3 mps 701 mmHg 79%
01:00 0°C° 0 mm 3 mps 701 mmHg 80%
02:00 0°C° 0 mm 3 mps 702 mmHg 81%
03:00 -1°C° 0 mm 3 mps 702 mmHg 82%
04:00 -1°C° 0 mm 3 mps 702 mmHg 81%
05:00 -2°C° 0 mm 4 mps 702 mmHg 80%
06:00 -2°C° 0 mm 4 mps 703 mmHg 79%
07:00 -1°C° 0.3 mm 4 mps 703 mmHg 76%
08:00 0°C° 0.3 mm 5 mps 704 mmHg 72%
09:00 +1°C° 0.3 mm 6 mps 704 mmHg 69%
10:00 +2°C° 0 mm 7 mps 705 mmHg 63%
11:00 +2°C° 0 mm 8 mps 705 mmHg 57%
12:00 +5°C° 0 mm 9 mps 705 mmHg 52%
13:00 +3°C° 0.1 mm 9 mps 705 mmHg 57%
14:00 +4°C° 0.1 mm 8 mps 705 mmHg 62%
15:00 +4°C° 0.1 mm 7 mps 705 mmHg 67%
16:00 +3°C° 0 mm 6 mps 706 mmHg 69%
17:00 +2°C° 0 mm 6 mps 706 mmHg 71%
18:00 +1°C° 0 mm 5 mps 707 mmHg 73%
19:00 +1°C° 0 mm 5 mps 707 mmHg 75%
20:00 +1°C° 0 mm 5 mps 707 mmHg 77%
21:00 0°C° 0 mm 5 mps 707 mmHg 79%
22:00 +1°C° 0 mm 5 mps 707 mmHg 78%
23:00 +1°C° 0 mm 4 mps 707 mmHg 76%
Show more